Regional Weather Roundup
Issued by NWS Kansas City/Pleasant Hill, MO

Home | Current Version | Previous Version | Text Only | Print | Product List | Glossary On
Versions: 1 2 3 4 5 6 7 8 9 10 11 12 13 14 15 16 17 18 19 20 21 22 23 24 25 26 27 28 29 30 31 32 33 34 35 36 37 38 39 40 41 42 43 44 45 46 47 48 49 50
000
ASUS43 KEAX 242311
RWREAX

WEATHER ROUNDUP FOR EASTERN KANSAS AND NORTHWEST MISSOURI
NATIONAL WEATHER SERVICE KANSAS CITY/PLEASANT HILL MO
600 PM CDT THU JUL 24 2014

KSZ040-057-103>105-MOZ028-029-037-043-250000-
...KANSAS CITY METROPOLITAN AREA...

CITY           SKY/WX    TMP DP  RH WIND       PRES   REMARKS
K.C. INTL      MOSUNNY   82  60  47 SE9       30.03R
K.C. DOWNTOWN  SUNNY     83  59  44 SE12      30.01S
LEES SUMMIT    SUNNY     81  59  47 SE10G17   30.04S
OLATHE - IXD   SUNNY     84  59  42 S10G21    30.02F
OLATHE - OJC   SUNNY     82  59  45 SE12      30.01F
LAWRENCE       SUNNY     86  61  42 SE12      29.99F

$$

MOZ001>008-011>017-020>025-030>033-038>040-044>046-053-054-250000-
...NORTHERN AND CENTRAL MISSOURI...

CITY           SKY/WX    TMP DP  RH WIND       PRES   REMARKS
ST. JOSEPH     SUNNY     82  62  50 SE14      30.01F
MOSBY          CLEAR     81  59  47 SE8       30.04R
WARRENSBURG    SUNNY     81  55  41 SE7       30.04S
WHITEMAN AFB   SUNNY     82  45  27 SE7       30.04S
CLINTON        SUNNY     82  61  47 E7        30.03S
SEDALIA        MOSUNNY   83  55  38 E6        30.05F
WARSAW         NOT AVBL
MARSHALL       SUNNY     82  61  47 E7        30.08R
CHILLICOTHE      N/A     80  58  46 SE7       30.07S
MOBERLY        SUNNY     81  55  41 NE5       30.10R
KIRKSVILLE     MOSUNNY   79  58  48 SE5       30.10F

$$

MOZ041-047>049-056>058-063>065-088>090-097-250000-
...EASTERN AND SOUTHERN MISSOURI...

CITY           SKY/WX    TMP DP  RH WIND       PRES   REMARKS
ST. LOUIS INTL PTSUNNY   80  52  37 E5        30.06R
SPIRIT OF STL  PTSUNNY   81  49  32 NE10      30.04S
COLUMBIA       SUNNY     81  55  40 E5        30.07R
JEFFERSON CITY SUNNY     82  54  37 CALM      30.04R
MEXICO         MOSUNNY   81  63  54 CALM      30.08R
HANNIBAL       PTSUNNY   79  54  41 CALM      30.10R
ROLLA          SUNNY     79  50  36 E6        30.05S
OSAGE BEACH    SUNNY     82  54  36 NE6       30.04R
SPRINGFIELD    SUNNY     83  56  39 E6        30.05F
BRANSON        SUNNY     90  57  33 S6        30.06F
NEVADA         SUNNY     84  61  45 SE6       30.02F
JOPLIN         SUNNY     87  62  43 SE8       30.01F
WEST PLAINS    SUNNY     80  55  42 NE5       30.06F
MALDEN         SUNNY     81  61  50 N7        30.03F

$$

IAZ060-094-KSZ022-034>040-054-083-096-NEZ052-066-093-250000-
...KANSAS...SOUTHEAST NEBRASKA AND IOWA...

CITY           SKY/WX    TMP DP  RH WIND       PRES   REMARKS
TOPEKA         SUNNY     88  61  40 SE13      29.98F
MANHATTAN      SUNNY     90  65  43 S18       29.95F HX  92
EMPORIA        SUNNY     86  64  47 SE16G22   29.98F
CHANUTE        SUNNY     86  66  51 SE9       30.00F
WICHITA        MOSUNNY   89  69  51 SE16      29.96F HX  93
OMAHA          PTSUNNY   81  61  50 SE23      29.95F
LINCOLN        SUNNY     87  63  44 S22G29    29.94F
FALLS CITY     SUNNY     83  62  49 SE12G20   29.98F
LAMONI         CLOUDY    75  59  57 SE9       30.03F
DES MOINES     LGT RAIN  74  63  68 NE7       30.06R

$$




USA.gov is the U.S. government's official web portal to all federal, state and local government web resources and services.